Regional Weather Roundup
Issued by NWS

Home | Current Version | Previous Version | Graphics & Text | Print | Product List | Glossary On
Versions: 1 2 3 4 5 6 7 8 9 10 11 12 13 14 15 16 17 18 19 20 21 22 23 24 25 26 27 28 29 30 31 32 33 34 35 36 37 38 39 40 41 42 43 44 45 46 47 48 49 50
000
ASUS43 KFSD 061102
RWRSD

WEATHER ROUNDUP FOR SOUTH DAKOTA
NATIONAL WEATHER SERVICE SIOUX FALLS SD
500 AM CST FRI MAR 06 2015

NOTE: "FAIR" INDICATES FEW OR NO CLOUDS BELOW 12,000 FEET WITH NO
SIGNIFICANT WEATHER AND/OR OBSTRUCTIONS TO VISIBILITY.


SDZ001>005-009-010-012>017-061200-
NORTHWEST AND NORTH CENTRAL SOUTH DAKOTA

CITY           SKY/WX    TMP DP  RH WIND       PRES   REMARKS
BUFFALO          N/A     27  14  58 W10       29.99S WCI  17
FAITH            N/A     29  15  56 NW12      30.06R WCI  19
MOBRIDGE       CLEAR     15  10  80 CALM      30.02R
$$

SDZ012>016-024>037-041>051-057-063-072>074-061200-
SOUTHWEST AND SOUTH CENTRAL SOUTH DAKOTA

CITY           SKY/WX    TMP DP  RH WIND       PRES   REMARKS
RAPID CTY ARPT PTCLDY    26  15  63 W3        30.10F
PIERRE         CLOUDY    27  18  69 W12       30.07S WCI  17
CUSTER         PTCLDY    26  11  52 CALM      30.10S
ELLSWORTH AFB  PTCLDY    31  15  50 W6        30.09S WCI  26
PHILIP         CLEAR     24  18  77 W9        30.11R WCI  14
PINE RIDGE     PTCLDY    33  20  58 W10       30.15S WCI  25
SPEARFISH      FAIR      36  16  44 W13       30.10S
WINNER         FAIR      33  16  49 SW7       30.11S WCI  27
$$

SDZ004>011-016>023-039-040-061200-
NORTHEAST SOUTH DAKOTA

CITY           SKY/WX    TMP DP  RH WIND       PRES   REMARKS
ABERDEEN       CLEAR     11   6  81 VRB3      30.05R
WATERTOWN      CLEAR      9   3  77 S6        30.02S WCI  -1
SISSETON         N/A     25  13  60 W13       29.98  WCI  14
$$

SDZ017-020-022-023-036>040-048>070-061200-
SOUTHEAST SOUTH DAKOTA

CITY           SKY/WX    TMP DP  RH WIND       PRES   REMARKS
SIOUX FALLS    PTCLDY    18   9  68 SW5       30.09S WCI  11
HURON          CLOUDY    18  10  71 VRB3      30.07R
MITCHELL       CLOUDY    29  18  63 W8        30.10S WCI  21
YANKTON        CLEAR     27  12  54 W3        30.14R
$$

ABBREVIATIONS USED IN REMARKS
   TC - TEMPERATURE IN CELSIUS
  WCI - WIND CHILL INDEX
   HX - HEAT INDEX
  VSB - VISIBILITY



USA.gov is the U.S. government's official web portal to all federal, state and local government web resources and services.